User: anonymous   Login
Location: Buttermere
(51.3333°N, 1.5167°W)
Time: 14:46:20
(UTC+00:00)
Language:

Cosmos 1048 Rocket - Orbit

View from above orbital plane
View from above orbital plane
View from above satellite
View from above satellite

Ground track
Ground track

The orbit data is extracted from the following two-line orbital elements,

1 11112U 78105B   20333.57597595 +.00000112 +00000-0 +46045-4 0  9997
2 11112 074.0321 007.2034 0034540 218.5382 141.3305 14.37281260200571
Epoch (UTC): 28 November 2020 13:49:24
Eccentricity: 0.0034540
inclination: 74.0321°
perigee height: 743 km
apogee height: 792 km
right ascension of ascending node: 7.2034°
argument of perigee: 218.5382°
revolutions per day: 14.37281260
mean anomaly at epoch: 141.3305°
orbit number at epoch: 20057

The dashed part of the orbit path shows where the satellite is in the earth's shadow,  

DLR